GEFSMA_500_meanwind_024.txt.gz
Wind_Speed
37 37 37 37 38 39 40 40 41 40 39 38 38 37 37 36 37 36 34 32 29 27 26 25 25 25 25 24 23 21 19 18 17 18 18 18 19 19 19 18 18 17 16
35 35 35 35 36 36 37 38 39 40 40 39 37 36 36 37 37 37 36 35 34 33 31 29 28 28 27 27 26 25 24 22 21 19 19 18 19 19 19 20 20 20 19
31 31 32 33 34 36 36 37 37 38 38 39 38 37 36 36 36 36 37 36 35 33 33 32 32 31 30 30 29 28 27 27 25 24 22 21 20 20 20 20 21 21 21
29 30 31 32 34 36 37 38 38 38 38 38 38 38 38 37 36 36 36 35 35 35 35 35 35 34 33 33 33 32 31 31 30 29 27 26 24 22 22 21 22 22 23
28 28 30 31 33 35 37 38 38 39 39 39 39 39 38 39 37 37 37 36 36 35 35 35 36 36 36 35 35 35 35 35 34 33 32 31 29 27 25 24 23 23 24
24 25 27 29 32 35 37 38 39 39 39 39 39 38 38 38 37 37 37 37 37 36 35 34 34 35 35 36 37 37 38 38 38 38 36 35 34 33 30 28 26 25 25
19 21 23 26 29 32 35 38 40 40 40 40 40 38 37 36 36 36 37 37 37 36 36 35 35 35 36 37 38 39 40 40 40 41 40 40 39 38 36 34 30 28 27
18 19 21 24 26 29 32 35 38 40 41 41 41 40 38 37 36 35 36 37 37 37 37 36 36 35 36 37 38 38 40 40 41 42 42 42 42 41 40 39 35 32 29
19 19 21 23 25 27 29 32 35 37 39 41 42 41 40 37 36 35 35 36 36 36 36 36 35 35 36 37 37 38 39 39 41 42 43 43 44 43 42 41 39 36 33
22 22 23 24 26 27 29 30 31 34 36 39 40 41 40 39 38 36 36 35 36 37 37 36 35 35 35 37 37 38 38 40 40 41 42 43 44 44 44 44 42 40 37
25 25 25 25 26 27 28 29 30 31 33 35 37 39 40 39 38 37 36 36 36 37 37 37 36 36 35 36 36 36 37 38 39 39 40 41 43 44 44 44 44 43 40
27 26 25 26 27 28 29 29 29 29 30 32 34 36 37 38 38 37 36 36 37 36 37 36 35 35 35 35 35 34 35 36 37 37 38 39 40 42 42 43 45 45 43
28 27 26 26 27 28 29 29 29 29 29 30 31 33 35 36 37 37 36 36 36 36 35 35 35 34 34 34 35 34 34 35 36 36 36 37 39 40 40 41 42 44 44
29 28 27 27 27 27 28 29 28 28 28 28 29 31 32 33 35 35 35 35 35 35 35 34 35 35 35 34 34 34 34 34 35 35 36 36 37 39 39 38 39 41 42
31 29 28 27 26 27 27 28 28 28 28 27 27 28 30 31 33 34 35 35 35 35 35 34 34 34 34 34 33 32 32 33 33 33 34 34 35 37 39 40 39 40 40
32 30 29 27 26 26 27 27 28 28 27 27 26 26 27 29 30 32 33 34 34 35 35 34 34 34 33 32 31 30 31 32 32 32 32 32 32 32 35 39 40 41 42
34 32 30 28 27 26 27 27 28 28 27 27 26 26 26 26 28 30 31 32 33 34 34 34 34 33 31 30 29 29 29 29 29 29 30 30 30 30 32 35 38 41 43
37 34 31 29 28 27 27 27 28 28 28 27 26 25 25 24 25 27 29 31 32 33 33 33 33 32 31 29 29 28 29 29 28 28 28 29 29 28 29 31 34 38 42
42 38 34 32 30 29 28 28 28 28 28 27 26 25 24 24 24 25 26 28 29 30 31 31 31 31 30 30 29 29 28 29 28 28 28 28 27 27 29 30 30 33 36
48 43 39 36 34 32 30 29 29 29 28 27 26 25 23 22 23 24 24 25 26 27 27 27 28 29 29 29 29 29 29 27 27 27 26 25 24 25 26 26 27 29 32
53 48 44 41 38 35 33 31 31 30 28 27 25 24 22 21 21 21 21 23 24 25 26 27 27 28 28 28 28 27 27 25 24 22 21 20 20 20 21 22 23 25 26
59 55 50 47 43 40 37 34 33 32 29 27 26 24 22 21 20 21 22 24 25 25 25 26 27 27 28 27 26 25 23 21 20 19 18 18 17 18 18 19 21 23 24
67 61 55 52 48 45 41 37 35 34 31 28 26 24 23 21 21 21 22 23 25 25 25 26 26 27 27 25 23 21 20 19 17 17 17 17 18 18 18 19 20 22 23
72 67 62 57 53 49 45 40 38 35 32 29 26 24 22 22 20 20 21 22 24 24 24 24 23 22 22 21 19 18 17 16 16 16 16 15 15 16 16 18 19 21 23
71 68 63 58 55 50 46 42 39 37 33 30 27 24 22 21 20 19 20 20 20 20 20 19 19 18 18 17 17 16 15 14 13 13 13 14 15 16 17 18 20 22 23
62 62 60 56 53 49 45 42 40 37 34 30 27 24 21 21 21 20 21 21 20 19 18 17 17 17 17 16 15 14 13 12 11 11 12 13 13 14 15 16 18 19 21

GEFSMA_500_meanwind_030.txt.gz
Wind_Speed
30 30 30 31 31 31 31 31 31 32 32 32 32 31 31 32 33 33 33 31 31 30 28 27 27 26 25 24 23 23 22 21 19 18 19 20 20 20 19 18 17 16 15
30 30 29 28 27 27 27 27 28 29 30 31 31 31 30 30 31 31 33 33 32 31 30 28 28 28 28 27 26 26 25 24 22 21 19 18 19 19 19 20 19 19 18
30 29 28 27 26 25 26 26 27 29 29 30 31 32 32 31 31 31 31 30 31 30 29 30 29 28 28 29 28 28 28 27 25 24 22 21 20 20 20 20 20 20 19
28 27 26 25 24 24 24 24 25 26 28 29 30 32 33 32 32 32 31 30 31 29 28 28 28 28 29 28 30 30 30 30 28 27 26 25 24 23 23 22 21 21 20
26 25 24 23 22 22 22 22 23 24 26 27 29 30 32 33 33 33 31 30 31 30 29 28 28 29 29 29 29 30 30 32 31 30 30 29 28 28 27 26 25 24 23
25 23 22 21 20 20 21 21 22 24 25 27 28 30 31 32 33 33 32 32 31 30 30 30 29 30 30 30 29 30 30 31 33 34 33 32 32 31 31 30 29 28 27
24 22 21 19 19 20 20 21 22 23 25 27 27 29 30 31 32 32 32 32 31 31 31 31 30 29 29 30 30 30 31 32 34 35 36 35 35 35 34 34 33 32 31
22 21 20 20 20 20 21 22 23 24 25 27 28 28 28 30 31 31 31 32 32 31 31 32 31 30 29 30 30 31 32 32 33 35 36 37 37 37 37 36 36 36 35
22 22 21 21 21 22 23 24 24 24 25 27 28 28 28 28 29 30 30 30 31 31 30 31 31 30 29 30 30 31 31 32 33 34 35 36 37 39 39 39 39 38 38
23 23 23 24 24 24 25 25 25 25 25 26 28 28 28 28 28 27 28 29 30 30 30 31 31 31 30 29 30 30 31 32 33 34 35 36 36 37 39 40 40 40 40
25 25 26 26 26 26 26 27 27 27 26 27 27 28 28 28 27 25 24 27 29 30 30 30 31 31 29 28 28 28 30 32 32 33 34 35 36 37 37 39 40 40 40
28 28 29 30 30 30 29 28 29 28 28 28 28 27 27 27 26 25 23 24 27 29 30 29 30 30 29 27 27 27 28 29 30 31 32 33 35 36 36 36 37 38 39
32 32 32 32 33 33 31 31 30 29 29 29 28 27 27 26 26 25 23 23 25 27 29 29 29 29 28 26 27 25 25 26 28 29 30 31 32 33 34 35 36 36 37
35 36 36 35 35 35 34 33 31 30 30 29 29 28 27 26 25 24 24 23 23 25 27 27 27 28 27 26 26 25 25 25 26 27 29 30 31 32 34 34 34 34 34
40 40 39 38 38 38 37 35 33 32 31 30 29 28 27 26 25 24 23 23 22 23 25 25 26 27 26 26 25 25 25 25 25 26 27 28 29 31 30 30 32 32 32
46 45 44 42 41 39 38 37 35 33 32 31 30 29 28 27 25 24 23 22 22 22 23 24 25 26 26 26 25 25 25 25 25 26 26 26 27 27 28 28 29 29 30
54 52 49 47 45 42 40 39 37 35 34 33 31 30 28 27 25 24 22 22 21 21 21 22 24 26 26 26 26 26 26 25 25 25 24 24 25 26 26 27 27 26 27
59 57 55 53 50 47 44 42 39 37 35 33 32 30 28 27 26 24 22 21 21 20 21 22 23 25 26 26 26 26 26 26 25 24 24 24 23 24 24 24 25 25 25
64 62 60 57 54 52 49 45 42 40 37 35 33 31 29 27 25 24 22 21 20 20 20 21 23 24 25 26 26 26 26 25 25 23 23 23 22 22 23 23 24 24 24
70 68 66 63 59 55 51 49 46 42 40 37 35 32 29 27 26 24 22 21 20 19 20 20 22 24 25 26 26 25 25 24 24 23 22 22 22 22 22 22 22 23 23
75 74 72 69 65 61 56 53 50 46 43 39 37 35 31 28 26 24 22 21 20 20 19 20 21 22 23 23 23 24 24 24 24 23 22 21 20 20 20 20 19 19 19
71 73 75 74 71 67 63 59 55 51 47 43 38 36 33 30 27 25 23 22 21 20 19 19 21 21 22 22 23 24 24 23 23 23 21 19 18 18 17 15 15 15 15
55 62 67 70 72 72 69 64 60 56 51 46 42 37 34 31 28 26 24 23 21 20 18 19 20 21 22 22 22 23 23 22 22 20 19 17 17 16 14 14 13 13 14
42 46 53 59 64 67 70 68 64 59 53 49 45 41 36 33 29 27 24 23 21 20 19 19 20 20 22 23 22 22 22 22 21 20 18 16 15 15 14 13 13 13 13
37 38 39 45 52 57 62 66 65 60 55 51 47 42 38 34 30 28 26 24 21 20 19 19 19 21 23 23 22 22 21 19 18 17 17 15 14 14 13 12 12 12 12
36 35 34 35 39 45 52 57 60 59 55 51 47 43 39 35 32 29 27 25 22 20 19 18 18 19 20 20 20 19 17 15 16 16 15 13 12 12 11 11 10 10 10

GEFSMA_500_meanwind_036.txt.gz
Wind_Speed
25 25 24 24 24 24 25 25 25 25 25 24 24 24 25 24 24 25 26 25 25 26 28 28 27 27 25 24 23 23 22 20 20 19 18 18 17 18 19 18 18 16 15
25 26 25 25 24 24 24 24 24 24 23 23 22 22 22 22 23 24 24 25 25 26 27 27 27 27 27 26 25 25 25 24 22 22 21 20 19 18 20 20 19 19 17
26 25 25 25 24 24 24 24 23 23 22 21 21 21 20 21 21 22 23 23 25 26 27 27 28 28 27 27 27 26 26 26 25 24 24 23 22 21 21 21 21 20 19
26 25 25 24 24 23 23 23 22 21 20 19 19 18 18 19 20 20 21 22 24 25 26 27 27 27 28 28 28 28 28 28 28 27 27 26 25 23 23 23 23 22 21
26 25 25 24 23 23 22 22 21 20 19 18 17 17 17 17 18 19 20 21 23 25 26 27 27 27 29 29 29 29 30 31 30 29 29 29 28 27 26 25 24 24 23
26 25 25 24 23 22 22 21 20 19 18 17 16 16 16 17 17 18 20 21 22 24 26 27 28 28 29 30 30 30 31 32 32 31 31 31 31 30 29 28 27 26 26
25 25 24 24 23 23 22 21 20 19 18 17 16 16 16 16 16 17 19 20 22 23 24 26 28 29 30 31 31 31 32 34 33 33 33 32 32 32 32 31 30 30 29
25 24 24 24 24 23 22 22 21 20 20 18 17 17 17 17 17 18 19 20 21 22 23 25 27 29 31 31 32 33 33 34 34 34 34 34 33 33 33 33 32 32 32
25 25 24 24 24 24 23 23 22 22 21 20 19 18 18 18 19 19 19 20 21 22 22 24 27 29 31 31 33 33 33 33 33 34 35 34 33 33 34 34 34 34 34
24 25 25 26 25 25 26 25 25 23 23 23 21 20 19 18 19 21 21 21 20 21 21 22 24 27 29 31 31 32 31 31 33 34 35 34 33 33 33 34 34 35 35
25 26 27 28 28 28 28 29 28 26 25 25 24 22 21 20 19 19 21 22 21 20 20 21 22 24 26 27 30 31 31 30 30 32 32 32 33 32 32 32 33 34 34
28 29 29 29 30 30 31 31 31 30 29 27 26 25 23 22 21 20 20 22 22 21 20 20 21 22 24 26 27 29 28 27 27 27 28 30 30 30 31 31 32 33 34
33 33 34 33 33 33 33 33 33 33 32 30 29 27 26 25 24 22 21 21 22 22 21 20 20 21 22 23 25 25 25 25 25 23 24 26 27 29 30 30 31 32 33
41 40 40 38 37 37 37 37 36 36 35 34 32 30 29 27 26 25 24 22 21 22 21 20 20 19 20 22 23 23 23 24 22 21 22 22 24 27 29 30 31 31 32
47 46 46 45 43 42 42 41 40 39 39 37 35 33 31 30 29 27 26 24 22 21 21 21 20 19 19 20 22 22 22 22 22 22 22 22 23 24 26 27 29 30 31
52 52 51 51 50 48 47 46 44 43 42 40 38 36 34 32 31 30 28 26 23 22 21 22 20 19 19 20 21 22 23 23 23 22 22 23 23 23 24 25 27 29 30
58 57 56 56 55 54 52 50 49 47 45 43 41 39 36 34 33 32 30 28 25 23 22 22 21 20 20 20 21 22 23 25 25 24 24 23 23 23 24 25 25 25 26
63 62 62 61 59 58 57 55 53 51 49 47 45 43 40 37 35 33 31 29 27 24 22 21 21 20 20 20 21 23 24 26 26 25 24 23 23 23 23 23 23 23 23
63 65 66 65 65 63 62 59 58 55 53 51 48 46 43 40 37 35 33 31 29 26 23 22 21 20 21 20 21 22 24 25 25 24 24 23 23 22 22 22 21 21 21
54 60 64 67 68 68 67 64 62 59 56 54 51 48 46 43 40 37 35 32 30 27 24 23 21 21 21 21 21 21 22 23 24 24 24 23 22 21 21 21 21 20 21
43 47 51 57 63 67 68 68 66 64 60 57 53 50 48 45 42 39 36 34 31 29 26 24 22 21 20 20 20 20 20 21 22 22 22 21 20 20 19 19 19 20 20
39 40 42 44 49 55 61 65 66 66 63 60 56 53 50 47 45 41 39 36 33 30 27 25 23 22 21 21 19 19 19 19 20 20 20 19 19 19 19 19 19 19 19
40 39 38 38 40 43 47 52 58 62 63 61 58 55 52 49 46 43 40 37 34 31 28 25 23 21 20 20 19 19 19 19 19 19 19 19 18 18 18 18 17 17 18
38 38 38 37 36 37 40 42 46 52 57 59 59 57 54 51 48 44 41 38 35 32 29 25 23 21 20 20 20 19 20 19 19 19 18 18 18 18 18 18 18 17 17
40 39 38 37 37 36 36 37 39 43 48 53 56 56 55 53 50 46 42 38 35 32 29 26 23 21 20 19 19 19 19 19 19 19 18 18 18 18 17 18 18 18 17
41 39 38 37 37 36 36 36 35 37 41 47 51 54 54 53 51 47 44 40 35 32 29 26 23 21 20 20 19 19 19 19 18 18 18 18 18 18 17 17 17 17 17

GEFSMA_500_meanwind_042.txt.gz
Wind_Speed
33 31 29 28 27 26 26 26 26 26 26 26 26 25 23 23 22 23 22 21 21 21 22 22 22 23 24 25 25 25 25 25 24 22 22 21 20 19 19 19 17 16 15
35 33 30 29 28 27 26 27 27 26 26 26 26 25 25 23 22 22 22 21 21 20 20 21 22 23 24 24 25 26 27 27 27 26 25 24 23 21 20 20 20 19 18
36 34 32 30 28 27 26 26 26 26 26 26 26 26 24 23 22 21 20 20 19 19 19 20 21 23 24 24 25 27 28 29 29 29 29 27 26 25 23 22 21 21 20
36 34 32 30 29 27 27 27 27 27 26 26 26 25 24 22 21 20 19 19 18 18 19 19 20 21 23 24 25 27 28 30 31 31 31 30 29 28 26 25 23 22 22
34 33 32 31 29 27 27 27 26 26 26 25 25 24 23 22 20 19 18 18 18 17 18 18 19 20 22 23 24 26 27 29 32 33 33 32 31 30 29 28 26 24 24
33 32 31 31 29 27 27 26 25 25 24 24 24 24 23 22 20 20 18 17 17 17 17 18 19 20 22 23 24 26 27 29 32 34 34 34 34 32 31 30 29 27 26
30 32 30 28 28 28 27 26 25 25 24 24 24 24 23 22 21 20 19 17 17 16 17 17 19 20 22 23 25 26 28 29 31 34 34 34 35 34 33 32 30 29 28
27 29 29 28 29 28 27 26 25 25 25 24 25 24 23 22 21 20 19 18 17 16 17 17 18 20 21 23 24 26 28 29 32 33 33 33 34 35 35 33 33 31 30
27 29 29 29 29 28 28 27 27 26 26 26 26 26 24 23 22 22 20 18 18 17 17 18 19 20 21 22 23 25 27 29 31 32 32 33 33 34 36 36 34 34 32
28 29 29 29 30 30 29 29 29 29 28 28 28 28 27 25 24 23 22 20 19 18 18 19 19 20 20 21 23 24 26 28 30 32 32 31 32 33 35 36 37 35 35
32 32 32 31 31 32 32 32 31 31 31 30 30 30 29 27 26 25 23 22 20 19 19 19 20 20 20 20 21 22 24 26 28 30 31 31 32 32 33 35 37 37 36
36 36 36 35 35 35 35 34 34 33 33 32 32 32 31 30 29 27 26 24 22 20 20 20 20 20 20 20 20 21 22 24 26 27 29 29 30 30 30 32 34 36 36
43 42 41 41 40 39 38 38 38 37 36 35 35 34 34 33 32 30 28 27 25 23 22 21 21 20 20 20 20 20 21 22 23 24 26 28 29 28 28 29 32 33 35
49 49 48 47 47 46 44 42 42 41 40 39 38 38 37 36 35 33 31 29 28 26 24 22 21 21 21 20 20 20 20 20 21 22 24 26 27 28 27 27 29 31 33
55 55 55 54 53 52 51 49 47 46 45 44 43 42 40 39 38 36 34 32 30 28 26 24 22 22 21 21 20 19 19 19 20 21 22 24 26 28 27 27 28 29 30
58 60 61 60 59 58 57 56 54 52 51 50 48 46 44 43 41 39 37 35 32 30 29 27 25 23 22 21 20 20 19 19 20 20 22 23 24 25 26 27 27 27 28
55 58 61 63 64 64 63 62 61 59 57 55 54 51 49 47 44 42 40 38 35 32 30 28 27 24 23 21 20 19 19 19 19 20 21 22 23 24 25 25 25 26 26
51 54 57 60 64 67 68 68 66 65 63 60 59 57 54 52 49 46 43 40 38 35 32 30 28 25 24 22 20 19 19 19 19 20 21 22 22 23 23 24 25 25 26
49 50 53 56 60 64 68 70 70 70 69 66 63 61 59 56 53 50 46 43 40 37 34 31 29 27 24 23 21 20 19 19 19 20 22 23 23 23 24 24 24 24 25
49 49 50 52 54 58 63 67 71 72 72 70 68 64 62 59 57 53 50 46 43 40 36 33 30 28 26 23 22 20 19 20 20 20 21 23 24 24 25 25 25 25 25
49 48 48 48 49 52 55 58 63 69 72 72 71 68 64 61 59 56 53 49 46 43 39 35 32 29 27 24 23 21 20 20 20 21 21 22 24 25 25 25 25 25 25
49 49 48 48 47 48 49 52 55 59 64 69 70 70 68 64 61 59 56 52 48 45 42 38 33 30 28 26 24 22 21 20 20 20 21 22 23 24 25 25 25 24 23
46 47 47 47 47 46 45 45 47 49 53 58 64 68 68 66 63 59 57 55 50 47 43 40 35 32 30 27 25 23 22 21 20 20 20 21 22 23 24 24 24 24 24
43 44 45 45 45 44 43 42 42 43 45 48 52 58 63 65 66 61 56 54 51 48 44 41 37 34 31 29 26 24 23 22 20 20 20 21 22 22 23 23 23 23 23
39 40 42 43 44 43 43 42 40 39 39 41 43 46 52 58 62 62 58 54 52 49 45 42 39 36 33 30 27 25 23 22 21 21 21 21 21 21 22 22 22 22 22
33 36 40 41 42 42 41 41 40 38 36 36 38 39 43 48 53 58 58 55 52 49 46 43 40 37 34 31 28 25 24 22 21 21 21 21 21 22 22 22 22 21 22